W4TL Weather Reports


time (UTC)temp
F
wind
direction
speed
knots
gust
knots
rain 1hr
in
rain 24hr
in
rain mn
in
humidity
%
barometer
mb
20260906104626 70 0 0.0 0.0 0.00 0.61 0.01 100 1013.6
20260906103101 70 0 0.0 0.0 0.00 0.61 0.01 100 1013.7
20260906101559 70 0 0.0 0.0 0.00 0.61 0.01 100 1013.5
20260906100057 70 0 0.0 0.0 0.00 0.61 0.01 100 1013.5
20260906094641 70 0 0.0 0.0 0.00 0.61 0.01 100 1013.6
20260906093109 70 0 0.0 0.0 0.00 0.61 0.01 100 1013.7
20260906091613 69 0 0.0 0.0 0.00 0.61 0.01 100 1013.6
20260906090100 70 0 0.0 0.0 0.00 0.61 0.01 100 1013.7
20260906084553 70 0 0.0 0.0 0.00 0.61 0.01 100 1013.7
20260906083102 70 0 0.0 0.0 0.00 0.61 0.01 100 1013.7
20260906081603 70 0 0.0 0.0 0.00 0.61 0.01 100 1013.5
20260906074604 70 0 0.0 0.0 0.00 0.61 0.01 100 1013.6
20260906073103 70 0 0.0 0.0 0.00 0.61 0.01 100 1013.6
20260906071601 70 0 0.0 0.0 0.00 0.61 0.01 100 1013.6
20260906070101 70 0 0.0 0.0 0.00 0.61 0.01 100 1013.8
20260906064555 70 0 0.0 0.9 0.00 0.61 0.01 100 1013.9
20260906063101 70 0 0.0 0.0 0.01 0.61 0.01 100 1013.7
20260906061602 70 0 0.0 0.9 0.01 0.61 0.01 100 1014.0
20260906060104 70 0 0.0 0.0 0.01 0.61 0.01 100 1014.2
20260906054604 70 0 0.0 0.9 0.01 0.61 0.01 100 1014.2
20260906053107 70 0 0.0 0.0 0.00 0.60 0.00 100 1014.5
20260906051600 70 0 0.0 0.9 0.00 0.60 0.00 100 1014.7
20260906050125 70 0 0.0 0.0 0.00 0.60 0.00 100 1014.7
20260906044556 70 0 0.0 0.9 0.00 0.60 0.00 100 1014.7
20260906043102 70 0 0.0 0.9 0.00 0.60 0.00 100 1014.5
20260906041600 70 0 0.0 0.9 0.00 0.60 0.00 100 1014.6
20260906040139 70 0 0.0 0.9 0.00 0.60 0.00 100 1014.3
20260906034607 70 165 0.0 0.9 0.00 0.60 0.60 100 1014.6
20260906033104 70 0 0.0 0.0 0.00 0.60 0.60 100 1014.6
20260906031603 70 0 0.0 0.0 0.00 0.60 0.60 100 1014.7
20260906030109 70 0 0.0 0.0 0.00 0.60 0.60 100 1014.8
20260906024604 71 0 0.0 0.9 0.00 0.60 0.60 100 1014.9
20260906023103 71 0 0.0 0.0 0.00 0.60 0.60 100 1015.0
20260906021608 71 165 0.0 0.9 0.00 0.60 0.60 100 1015.1
20260906020107 71 0 0.0 0.9 0.00 0.60 0.60 100 1015.2
20260906014600 71 0 0.0 0.0 0.00 0.60 0.60 100 1015.1
20260906013103 71 0 0.0 0.9 0.00 0.60 0.60 100 1014.6
20260906011604 71 165 0.0 0.9 0.00 0.60 0.60 100 1014.6
20260906010109 71 0 0.0 1.7 0.00 0.60 0.60 100 1014.4
20260906004608 71 0 0.0 1.7 0.00 0.60 0.60 100 1014.5
20260906003105 71 0 0.0 0.0 0.00 0.60 0.60 100 1014.0
20260906001615 71 0 0.0 0.0 0.00 0.60 0.60 100 1013.5
20260905234606 71 0 0.0 1.7 0.00 0.60 0.60 100 1013.5
20260905233113 71 0 0.0 6.1 0.00 0.60 0.60 100 1013.3
20260905231603 71 0 0.0 1.7 0.00 0.60 0.60 100 1013.6
20260905230115 71 0 0.0 1.7 0.01 0.60 0.60 100 1013.4
20260905224610 71 0 0.0 1.7 0.03 0.60 0.60 99 1013.0
20260905223103 70 315 0.0 1.7 0.17 0.60 0.60 99 1012.8
20260905221602 70 0 0.0 2.6 0.49 0.60 0.60 99 1013.2
20260905220103 70 0 0.0 2.6 0.49 0.58 0.58 98 1013.8
20260905214601 70 0 1.7 6.1 0.47 0.57 0.57 95 1014.4
20260905213109 71 119 4.3 16.5 0.31 0.41 0.41 92 1014.3
20260905211601 77 40 6.1 17.4 0.10 0.10 0.10 83 1013.4
20260905210109 85 10 0.0 1.7 0.10 0.10 0.10 93 1012.7
20260905204605 84 0 0.0 0.0 0.10 0.10 0.10 95 1012.3
20260905203101 86 0 0.0 2.6 0.10 0.10 0.10 88 1012.7
20260905201608 94 0 0.0 0.0 0.00 0.00 0.00 67 1012.9
20260905200147 95 0 0.0 1.7 0.00 0.00 0.00 59 1012.8
20260905194616 96 0 0.0 1.7 0.00 0.00 0.00 61 1012.9
20260905193100 98 0 0.0 2.6 0.00 0.00 0.00 53 1012.9
20260905191558 101 57 0.0 2.6 0.00 0.00 0.00 48 1013.2
20260905190107 100 136 0.0 3.5 0.00 0.00 0.00 50 1013.4
20260905184612 99 175 0.9 4.3 0.00 0.00 0.00 49 1013.7
20260905183109 99 268 1.7 7.0 0.00 0.00 0.00 51 1013.6
20260905181559 96 140 0.9 4.3 0.00 0.00 0.00 55 1013.8
20260905180112 94 247 0.9 3.5 0.00 0.00 0.00 57 1014.1
20260905174606 95 0 1.7 5.2 0.00 0.00 0.00 57 1014.3
20260905173101 96 44 0.9 4.3 0.00 0.00 0.00 58 1014.3
20260905171606 94 10 0.9 3.5 0.00 0.00 0.00 59 1014.7
20260905170059 94 314 0.9 2.6 0.00 0.00 0.00 63 1014.7
20260905164605 93 169 0.0 3.5 0.00 0.00 0.00 62 1015.0
20260905163102 93 0 0.9 2.6 0.00 0.00 0.00 66 1015.3
20260905161604 92 0 0.0 3.5 0.00 0.00 0.00 70 1015.3
20260905160056 91 0 0.0 2.6 0.00 0.00 0.00 69 1015.5
20260905154601 90 241 0.0 2.6 0.00 0.00 0.00 68 1015.6
20260905153102 89 0 0.9 3.5 0.00 0.00 0.00 71 1015.6
20260905151559 88 257 0.0 4.3 0.00 0.00 0.00 72 1016.0
20260905150100 87 246 0.9 2.6 0.00 0.00 0.00 73 1016.1
20260905144606 86 0 0.9 3.5 0.00 0.00 0.00 78 1016.1
20260905143105 85 176 0.9 4.3 0.00 0.00 0.00 82 1016.1
20260905141605 83 0 0.0 2.6 0.00 0.00 0.00 85 1016.2
20260905134615 78 0 0.0 1.7 0.00 0.00 0.00 98 1016.4
20260905133100 76 0 0.0 1.7 0.00 0.00 0.00 100 1016.4
20260905131603 75 0 0.0 1.7 0.00 0.00 0.00 100 1016.5
20260905130105 73 0 0.0 0.0 0.00 0.00 0.00 100 1016.6
20260905124604 72 0 0.0 0.0 0.00 0.00 0.00 100 1016.6
20260905123107 71 0 0.0 0.0 0.00 0.00 0.00 100 1016.6
20260905121603 71 0 0.0 0.0 0.00 0.00 0.00 100 1016.4
20260905114612 70 0 0.0 0.0 0.00 0.00 0.00 100 1016.1
20260905113058 70 0 0.0 0.0 0.00 0.00 0.00 100 1015.9
20260905111607 70 0 0.0 0.9 0.00 0.00 0.00 100 1015.9
20260905110104 70 0 0.0 0.9 0.00 0.00 0.00 100 1015.7